This is the latest recevied weather packets stored in our database for station/object JR4VEV-13. If no packets are shown the sender has not sent any weather packets the latest 1 day(s).
| Time | Temp. | Humidity | Pressure | Rain* | Wind** | Luminosity | Snow |
|---|---|---|---|---|---|---|---|
| 1778011958 | 6.67° C | 92% | 1021.4 hPa | 0 mm | 1.79 m/s, 257° | - | - |
| 1778011358 | 6.67° C | 92% | 1021.3 hPa | 0 mm | 0.45 m/s, 229° | - | - |
| 1778010757 | 6.67° C | 92% | 1021.1 hPa | 0 mm | 0.89 m/s, 272° | - | - |
| 1778010158 | 6.67° C | 91% | 1020.9 hPa | 0 mm | 0.89 m/s, 239° | - | - |
| 1778009558 | 7.22° C | 91% | 1021.1 hPa | 0 mm | 0 m/s | - | - |
| 1778008957 | 7.22° C | 91% | 1021 hPa | 0 mm | 0.45 m/s, 280° | - | - |
| 1778008358 | 7.22° C | 91% | 1021 hPa | 0 mm | 0.45 m/s, 281° | - | - |
| 1778007757 | 7.22° C | 90% | 1021 hPa | 0 mm | 0 m/s | - | - |
| 1778007157 | 7.22° C | 91% | 1021.4 hPa | 0 mm | 0.45 m/s, 255° | - | - |
| 1778006557 | 7.22° C | 90% | 1021.3 hPa | 0 mm | 0.89 m/s, 249° | - | - |
| 1778005357 | 7.22° C | 90% | 1021.3 hPa | 0 mm | 0 m/s | - | - |
| 1778004757 | 7.22° C | 90% | 1021.4 hPa | 0 mm | 0 m/s | - | - |
| 1778004158 | 7.22° C | 89% | 1021.3 hPa | 0 mm | 0.45 m/s, 253° | - | - |
| 1778003558 | 7.78° C | 89% | 1021.4 hPa | 0 mm | 0.89 m/s, 256° | - | - |
| 1778002957 | 7.78° C | 88% | 1021.4 hPa | 0 mm | 0.45 m/s, 231° | - | - |
| 1778002357 | 7.78° C | 88% | 1021.6 hPa | 0 mm | 0.89 m/s, 260° | - | - |
| 1778001757 | 7.78° C | 87% | 1021.5 hPa | 0 mm | 0.89 m/s, 200° | - | - |
| 1778001157 | 7.78° C | 87% | 1021.6 hPa | 0 mm | 0.45 m/s, 209° | - | - |
| 1778000557 | 7.78° C | 87% | 1021.6 hPa | 0 mm | 0.45 m/s, 248° | - | - |
| 1777999956 | 7.78° C | 86% | 1021.6 hPa | 0 mm | 0 m/s | - | - |
| 1777999358 | 7.78° C | 85% | 1021.5 hPa | 0 mm | 0.45 m/s, 262° | - | - |
| 1777998757 | 8.33° C | 85% | 1021.4 hPa | 0 mm | 0 m/s | - | - |
| 1777998158 | 8.33° C | 85% | 1021.3 hPa | 0 mm | 0 m/s | - | - |
| 1777997558 | 8.33° C | 84% | 1021.4 hPa | 0 mm | 0.45 m/s, 243° | - | - |
| 1777996957 | 8.33° C | 84% | 1021.4 hPa | 0 mm | 0.45 m/s, 257° | - | - |
* Rain latest hour (hover to see other rain measurements)
** Current wind speed in m/s (hover to see current wind gust speed)